Regional Weather Roundup
Issued by NWS

Home | Current Version | Previous Version | Text Only | Print | Product List | Glossary On
Versions: 1 2 3 4 5 6 7 8 9 10 11 12 13 14 15 16 17 18 19 20 21 22 23 24 25 26 27 28 29 30 31 32 33 34 35 36 37 38 39 40 41 42 43 44 45 46 47 48 49 50
000
ASUS43 KTOP 040608
RWRKS

WEATHER ROUNDUP FOR KANSAS
NATIONAL WEATHER SERVICE GOODLAND KS
1200 AM CST SUN DEC 04 2016

NOTE:  "FAIR" INDICATES FEW OR NO CLOUDS BELOW 12,000 FEET WITH NO
SIGNIFICANT WEATHER AND/OR OBSTRUCTIONS TO VISIBILITY.

KSZ001>006-013>018-027>032-041>047-040700-
NORTHWEST KANSAS

CITY           SKY/WX    TMP DP  RH WIND       PRES   REMARKS
GOODLAND       CLOUDY    25  16  68 W12       30.04R WCI  14
6HR MIN TEMP:  25; 6HR MAX TEMP:  31;

HAYS           CLOUDY    32  31  96 NW5       30.05F FOG
HILL CITY      FOG       33  33 100 W6        30.05F VSB 1
6HR MIN TEMP:  32; 6HR MAX TEMP:  33;

RUSSELL        CLOUDY    34  34 100 SW6       30.03F
6HR MIN TEMP:  33; 6HR MAX TEMP:  36;

$$

KSZ061>065-074>080-084>089-040700-
SOUTHWEST KANSAS

CITY           SKY/WX    TMP DP  RH WIND       PRES   REMARKS
DODGE CITY     CLOUDY    37  36  96 CALM      30.05R
6HR MIN TEMP:  37; 6HR MAX TEMP:  39; 6HR PCP:  0.20;

ELKHART          N/A     32  28  85 CALM        N/A
GARDEN CITY    FOG       31  30  96 W6        30.03S VSB 1/4
6HR MIN TEMP:  30; 6HR MAX TEMP:  37; 6HR PCP:  0.02;

GREAT BEND     LGT RAIN  38  37  97 NW5       30.06S
LIBERAL        CLOUDY    39  36  87 NW5       30.05S
PRATT          LGT RAIN  37  37  99 CALM      30.05S
6HR MIN TEMP:  37; 6HR MAX TEMP:  37; 6HR PCP:  0.22;

$$

KSZ066>073-081>083-090>101-040700-
SOUTHEAST KANSAS

CITY           SKY/WX    TMP DP  RH WIND       PRES   REMARKS
CHANUTE        LGT RAIN  41  39  93 E10       30.08S FOG
6HR MIN TEMP:  41; 6HR MAX TEMP:  46; 6HR PCP:  0.05;

COFFEYVILLE    LGT RAIN  42  41  96 E7        30.08F FOG
6HR MIN TEMP:  42; 6HR MAX TEMP:  46; 6HR PCP:  0.05;

HUTCHINSON     LGT RAIN  40  39  97 E3        30.06F FOG
6HR MIN TEMP:  40; 6HR MAX TEMP:  41;

MEDICINE LODGE   N/A     40  39  97 CALM      30.05S
NEWTON         LGT RAIN  39  39 100 NE3       30.06F FOG
PARSONS        LGT RAIN  41  40  96 VRB5      30.09S FOG
6HR MIN TEMP:  41; 6HR MAX TEMP:  47; 6HR PCP:  0.06;

WICHITA INTL   LGT RAIN  42  41  96 N5        30.06F FOG
6HR MIN TEMP:  41; 6HR MAX TEMP:  43; 6HR PCP:  0.20;

WICHITA JABRA  LGT RAIN  40  40 100 NE5       30.05F FOG
6HR MIN TEMP:  40; 6HR MAX TEMP:  42; 6HR PCP:  0.01;

WICHITA MCCONL LGT RAIN  41  41 100 NE6       30.05F FOG
WINFIELD       LGT RAIN  43  43 100 CALM      30.06F FOG
6HR MIN TEMP:  42; 6HR MAX TEMP:  43; 6HR PCP:  0.11;

$$

KSZ007>012-019>026-033>040-048>060-102>105-040700-
NORTHEAST KANSAS

CITY           SKY/WX    TMP DP  RH WIND       PRES   REMARKS
CONCORDIA      LGT RAIN  35  35 100 W7        30.06F
6HR MIN TEMP:  35; 6HR MAX TEMP:  37; 6HR PCP:  0.24;

EMPORIA        LGT RAIN  40  40 100 N5        30.06F FOG
6HR MIN TEMP:  40; 6HR MAX TEMP:  43; 6HR PCP:  0.19;

LAWRENCE       LGT RAIN  42  42 100 SE3       30.11S FOG
6HR MIN TEMP:  41; 6HR MAX TEMP:  45; 6HR PCP:  0.12;

MANHATTAN      LGT RAIN  41  39  93 S6        30.08F
6HR MIN TEMP:  39; 6HR MAX TEMP:  41; 6HR PCP:  0.31;

MARYSVILLE     RAIN      37  37 100 W5        30.07S
OLATHE IND     LGT RAIN  40  39  97 SE7       30.10F FOG
6HR MIN TEMP:  40; 6HR MAX TEMP:  46; 6HR PCP:  0.05;

OLATHE EXE     LGT RAIN  39  38  96 S5        30.10S FOG
6HR MIN TEMP:  39; 6HR MAX TEMP:  45; 6HR PCP:  0.05;

SALINA         RAIN      42  40  92 S6        30.07F FOG
6HR MIN TEMP:  39; 6HR MAX TEMP:  42; 6HR PCP:  0.27;

TOPEKA BILLARD RAIN      40  38  93 CALM      30.10S FOG
6HR MIN TEMP:  40; 6HR MAX TEMP:  44; 6HR PCP:  0.09;

TOPEKA FORBES  LGT RAIN  42  40  92 CALM      30.09F FOG
6HR MIN TEMP:  41; 6HR MAX TEMP:  44; 6HR PCP:  0.10;

$$




USA.gov is the U.S. government's official web portal to all federal, state and local government web resources and services.